Location: Eboldshausen
(51.7766°N, 10.0050°E)
Time: 16:12:45
(UTC+00:00)

Cosmos 1602 - Pass Details

Date: 15 November 2025
Orbit: 366 x 374 km, 82.5° (Epoch: 12 December)

Event Time Altitude Azimuth Distance (km) Brightness Sun altitude
Rises 17:22:53 0° 351° (N) 2,288 7.0 -17.3°
Reaches altitude 10° 17:24:53 10° 354° (N) 1,433 5.9 -17.6°
Maximum altitude 17:27:59 70° 79° (ENE) 423 2.9 -18.1°
Enters shadow 17:28:18 63° 124° (ESE) 446 3.1 -18.2°
